Satellite-Ground Cal/Val Site Overpasses Predictions

Prediction of Satellite NPP Overpassing Cal/Val Site: Antarctic Dome C

Ground Cal/Val Site Location: Latitude: -75.10, Longitude: 123.35; Satellite-Ground Site NADIR distance within 100 km.

Table of predicted overpasses for the next 14.0 days since TLE Epoch: 2/17/2012
Interval Starting Time Ending Time Minimum Distance Time Minimum Distance (km)
1 02/17/2012 14:54:10 02/17/2012 14:54:39 02/17/2012 14:54:25 18.88
2 02/18/2012 14:35:30 02/18/2012 14:35:43 02/18/2012 14:35:36 88.17
3 02/19/2012 07:37:01 02/19/2012 07:37:28 02/19/2012 07:37:14 38.54
4 02/20/2012 07:18:15 02/20/2012 07:18:35 02/20/2012 07:18:25 71.46
5 02/22/2012 15:00:30 02/22/2012 15:00:54 02/22/2012 15:00:42 56.26
6 02/23/2012 14:41:40 02/23/2012 14:42:05 02/23/2012 14:41:52 52.93
7 02/24/2012 07:43:22 02/24/2012 07:43:41 02/24/2012 07:43:31 74.11
8 02/25/2012 07:24:29 02/25/2012 07:24:56 02/25/2012 07:24:43 33.84
9 02/27/2012 15:06:55 02/27/2012 15:07:04 02/27/2012 15:06:59 94.32
10 02/28/2012 14:47:54 02/28/2012 14:48:23 02/28/2012 14:48:09 16.97


NCC Satellite Cal/Val Overpasses Prediction Service
